Zurück zum Katalog

GORIZONT 24

AktivKommunikationGEO
NORAD 21759·PAYLOAD·🇷🇺 Russia

Gestartet Oct 23, 1991 von Baikonur Cosmodrome

Loading…

TLE

AktuellSource: Space-Track

Epoche: Sep 13, 2026, 20:51 UTC

1 21759U 91074A   26256.86892912 -.00000074  00000-0  00000-0 0  9993
2 21759  13.9653 342.9094 0022260 269.5628  89.2443  0.98443631125820

Verfolge GORIZONT 24 in Echtzeit mit AllMySat

Download on the App Store